Location: Grange Verzio
(44.5000°N, 6.9833°E)
Time: 17:57:59
(UTC+00:00)

Meteor 2-17 Rocket - Pass Details

Date: 01 February 2023
Orbit: 934 x 956 km, 82.5° (Epoch: 29 March)

Event Time Altitude Azimuth Distance (km) Brightness Sun altitude
Rises 17:07:31 0° 351° (N) 3,645 7.4 -5.3°
Reaches altitude 10° 17:10:01 10° 352° (N) 2,696 6.7 -5.7°
Maximum altitude 17:16:13 85° 82° (E) 966 4.5 -6.8°
Drops below altitude 10° 17:22:22 10° 171° (S) 2,677 6.9 -7.8°
Sets 17:24:51 0° 172° (S) 3,617 7.6 -8.2°
